Simultaneous Nadir Overpasses (SNOs) Predictions

Prediction of SNOs between GOES-17 and AQUA Satellite Orbit:

Table of predicted SNOs for the next 14.0 days since TLE Epoch: 2/25/2022
Index Date Time (GOES-17) GOES-17 Lat,Lon AQUA Lat,Lon Distance(km) Time Diff (sec)
1 02/27/2022 10:42:47 -0.04,-137.20 -0.09,-136.84 41.06 80
2 03/01/2022 10:30:31 -0.03,-137.20 -0.72,-133.85 379.92 80
3 03/01/2022 22:54:34 0.02,-137.20 -0.37,-139.04 209.11 80
4 03/03/2022 22:39:38 0.02,-137.20 0.27,-136.06 129.70 80
5 03/04/2022 11:03:32 -0.02,-137.19 0.85,-141.20 456.30 80
6 03/05/2022 22:30:02 0.02,-137.19 0.93,-133.08 468.16 80
7 03/06/2022 10:51:16 -0.02,-137.19 0.19,-138.23 117.98 80
8 03/08/2022 10:36:19 -0.02,-137.17 -0.42,-135.24 219.84 80
9 03/08/2022 22:57:41 0.02,-137.17 -0.66,-140.42 369.70 80
10 03/10/2022 22:45:25 0.01,-137.15 -0.04,-137.44 32.61 80
